Wetterdaten: Donnerstag, 05.05.2011
Datum Zeit Temp. a Sch. Temp. a Son. Temp. a Bod. Feuchte a. Luftdruck Regen Wind Richtung Richtung Sonnenschein Helligkeit Taupunkt Windchill
05.05.2011 00:02 3,1 C 4,5 C 3,2 C 74 % 1023 hPa 0,0 l/m 0,0 m/s (0 Bft) O-SO 115 0 min 0 lux -1,1 C 3,1 C
05.05.2011 00:07 3,1 C 4,4 C 3,0 C 75 % 1023 hPa 0,0 l/m 0,0 m/s (0 Bft) O-SO 115 0 min 0 lux -0,9 C 3,1 C
05.05.2011 00:12 2,9 C 4,4 C 2,6 C 74 % 1023 hPa 0,0 l/m 0,0 m/s (0 Bft) O-SO 115 0 min 0 lux -1,3 C 2,9 C
05.05.2011 00:17 2,8 C 4,2 C 2,5 C 75 % 1023 hPa 0,0 l/m 0,0 m/s (0 Bft) O-SO 115 0 min 0 lux -1,2 C 2,8 C
05.05.2011 00:22 2,7 C 4,1 C 2,5 C 75 % 1023 hPa 0,0 l/m 0,0 m/s (0 Bft) O-SO 115 0 min 0 lux -1,3 C 2,7 C
05.05.2011 00:27 2,6 C 4,0 C 2,6 C 75 % 1023 hPa 0,0 l/m 0,0 m/s (0 Bft) O-SO 115 0 min 0 lux -1,4 C 2,6 C
05.05.2011 00:32 2,6 C 3,9 C 2,4 C 76 % 1023 hPa 0,0 l/m 0,0 m/s (0 Bft) O-SO 115 0 min 0 lux -1,2 C 2,6 C
05.05.2011 00:37 2,5 C 3,7 C 2,2 C 76 % 1023 hPa 0,0 l/m 0,0 m/s (0 Bft) O-SO 115 0 min 0 lux -1,3 C 2,5 C
05.05.2011 00:43 2,4 C 3,6 C 2,2 C 77 % 1023 hPa 0,0 l/m 0,0 m/s (0 Bft) O-SO 115 0 min 0 lux -1,2 C 2,4 C
05.05.2011 00:48 2,3 C 3,5 C 2,0 C 76 % 1023 hPa 0,0 l/m 0,0 m/s (0 Bft) O-SO 115 0 min 0 lux -1,5 C 2,3 C
05.05.2011 00:52 2,3 C 3,4 C 1,9 C 76 % 1023 hPa 0,0 l/m 0,0 m/s (0 Bft) O-SO 115 0 min 0 lux -1,5 C 2,3 C
05.05.2011 00:57 2,1 C 3,3 C 1,8 C 76 % 1023 hPa 0,0 l/m 0,0 m/s (0 Bft) O-SO 115 0 min 0 lux -1,7 C 2,1 C
05.05.2011 01:02 2,0 C 3,3 C 2,0 C 77 % 1023 hPa 0,0 l/m 0,0 m/s (0 Bft) O-SO 115 0 min 0 lux -1,6 C 2,0 C
05.05.2011 01:07 1,9 C 3,2 C 1,7 C 78 % 1023 hPa 0,0 l/m 0,0 m/s (0 Bft) O-SO 115 0 min 0 lux -1,5 C 1,9 C
05.05.2011 01:12 1,9 C 3,1 C 1,6 C 78 % 1023 hPa 0,0 l/m 0,0 m/s (0 Bft) O-SO 115 0 min 0 lux -1,5 C 1,9 C
05.05.2011 01:17 1,8 C 3,0 C 1,9 C 78 % 1023 hPa 0,0 l/m 0,0 m/s (0 Bft) O-SO 115 0 min 0 lux -1,6 C 1,8 C
05.05.2011 01:22 1,8 C 2,9 C 1,9 C 78 % 1023 hPa 0,0 l/m 0,0 m/s (0 Bft) O-SO 115 0 min 0 lux -1,6 C 1,8 C
05.05.2011 01:27 1,6 C 2,8 C 1,6 C 78 % 1023 hPa 0,0 l/m 0,0 m/s (0 Bft) O-SO 115 0 min 0 lux -1,8 C 1,6 C
05.05.2011 01:32 1,5 C 2,7 C 1,4 C 78 % 1023 hPa 0,0 l/m 0,0 m/s (0 Bft) O-SO 110 0 min 0 lux -1,9 C 1,5 C
05.05.2011 01:37 1,4 C 2,7 C 1,2 C 79 % 1023 hPa 0,0 l/m 0,0 m/s (0 Bft) O-SO 110 0 min 0 lux -1,8 C 1,4 C
05.05.2011 01:42 1,4 C 2,6 C 1,6 C 79 % 1023 hPa 0,0 l/m 0,0 m/s (0 Bft) O-SO 110 0 min 0 lux -1,8 C 1,4 C
05.05.2011 01:47 1,3 C 2,5 C 0,9 C 79 % 1023 hPa 0,0 l/m 0,0 m/s (0 Bft) O-SO 110 0 min 0 lux -1,9 C 1,3 C
05.05.2011 01:52 1,2 C 2,5 C 1,5 C 80 % 1023 hPa 0,0 l/m 0,0 m/s (0 Bft) O-SO 115 0 min 0 lux -1,9 C 1,2 C
05.05.2011 01:57 1,2 C 2,3 C 1,1 C 80 % 1023 hPa 0,0 l/m 0,0 m/s (0 Bft) O-SO 115 0 min 0 lux -1,9 C 1,2 C
05.05.2011 02:02 1,2 C 2,3 C 1,0 C 80 % 1023 hPa 0,0 l/m 0,0 m/s (0 Bft) O-SO 115 0 min 0 lux -1,9 C 1,2 C
05.05.2011 02:07 1,1 C 2,2 C 0,8 C 80 % 1023 hPa 0,0 l/m 0,0 m/s (0 Bft) O-SO 115 0 min 0 lux -2,0 C 1,1 C
05.05.2011 02:12 1,0 C 2,1 C 1,2 C 80 % 1023 hPa 0,0 l/m 0,0 m/s (0 Bft) O-SO 115 0 min 0 lux -2,1 C 1,0 C
05.05.2011 02:17 0,9 C 2,1 C 0,8 C 80 % 1023 hPa 0,0 l/m 0,0 m/s (0 Bft) O-SO 115 0 min 0 lux -2,2 C 0,9 C
05.05.2011 02:22 0,8 C 2,0 C 1,0 C 81 % 1023 hPa 0,0 l/m 0,0 m/s (0 Bft) O-SO 115 0 min 0 lux -2,1 C 0,8 C
05.05.2011 02:27 0,7 C 2,0 C 0,9 C 81 % 1023 hPa 0,0 l/m 0,0 m/s (0 Bft) O-SO22.5 115 0 min 0 lux -2,2 C 0,7 C
05.05.2011 02:32 0,7 C 1,9 C 0,7 C 81 % 1023 hPa 0,0 l/m 0,0 m/s (0 Bft) O-SO 120 0 min 0 lux -2,2 C 0,7 C
05.05.2011 02:37 0,6 C 1,8 C 0,7 C 81 % 1023 hPa 0,0 l/m 0,0 m/s (0 Bft) O-SO 115 0 min 0 lux -2,3 C 0,6 C
05.05.2011 02:42 0,5 C 1,7 C 0,2 C 81 % 1023 hPa 0,0 l/m 0,0 m/s (0 Bft) O-SO 115 0 min 0 lux -2,4 C 0,5 C
05.05.2011 02:47 0,5 C 1,7 C 0,2 C 81 % 1023 hPa 0,0 l/m 0,0 m/s (0 Bft) O-SO 115 0 min 0 lux -2,4 C 0,5 C
05.05.2011 02:52 0,5 C 1,6 C 0,3 C 81 % 1023 hPa 0,0 l/m 0,0 m/s (0 Bft) O-SO 115 0 min 0 lux -2,4 C 0,5 C
05.05.2011 02:57 0,4 C 1,4 C 0,9 C 82 % 1023 hPa 0,0 l/m 0,0 m/s (0 Bft) O-SO 115 0 min 0 lux -2,3 C 0,4 C
05.05.2011 03:02 0,3 C 1,4 C 0,1 C 82 % 1023 hPa 0,0 l/m 0,0 m/s (0 Bft) O-SO 115 0 min 0 lux -2,4 C 0,3 C
05.05.2011 03:07 0,3 C 1,3 C 0,3 C 82 % 1023 hPa 0,0 l/m 0,0 m/s (0 Bft) O-SO 115 0 min 0 lux -2,4 C 0,3 C
05.05.2011 03:12 0,3 C 1,3 C 0,2 C 82 % 1023 hPa 0,0 l/m 0,0 m/s (0 Bft) O-SO 115 0 min 0 lux -2,4 C 0,3 C
05.05.2011 03:17 0,2 C 1,3 C 0,0 C 82 % 1023 hPa 0,0 l/m 0,0 m/s (0 Bft) O-SO 115 0 min 0 lux -2,5 C 0,2 C
05.05.2011 03:22 0,1 C 1,2 C -0,3 C 82 % 1023 hPa 0,0 l/m 0,0 m/s (0 Bft) O-SO 115 0 min 0 lux -2,6 C 0,1 C
05.05.2011 03:27 0,0 C 1,1 C 0,0 C 83 % 1023 hPa 0,0 l/m 0,0 m/s (0 Bft) O-SO22.5 120 0 min 0 lux -2,5 C 0,0 C
05.05.2011 03:32 0,0 C 1,0 C -0,1 C 83 % 1023 hPa 0,0 l/m 0,0 m/s (0 Bft) O-SO 115 0 min 0 lux -2,5 C 0,0 C
05.05.2011 03:37 -0,2 C 1,0 C 0,0 C 82 % 1023 hPa 0,0 l/m 0,0 m/s (0 Bft) O-SO 115 0 min 0 lux -2,9 C -0,2 C
05.05.2011 03:42 -0,2 C 1,0 C -0,2 C 82 % 1023 hPa 0,0 l/m 0,0 m/s (0 Bft) O-SO 115 0 min 0 lux -2,9 C -0,2 C
05.05.2011 03:47 -0,2 C 0,8 C -0,3 C 82 % 1023 hPa 0,0 l/m 0,0 m/s (0 Bft) O-SO 115 0 min 0 lux -2,9 C -0,2 C
05.05.2011 03:52 -0,3 C 0,8 C -0,6 C 82 % 1023 hPa 0,0 l/m 0,0 m/s (0 Bft) O-SO 120 0 min 0 lux -3,0 C -0,3 C
05.05.2011 03:57 -0,4 C 0,7 C -0,5 C 82 % 1023 hPa 0,0 l/m 0,0 m/s (0 Bft) O-SO 120 0 min 0 lux -3,1 C -0,4 C
05.05.2011 04:02 -0,4 C 0,7 C -0,3 C 83 % 1023 hPa 0,0 l/m 0,0 m/s (0 Bft) O-SO 115 0 min 0 lux -2,9 C -0,4 C
05.05.2011 04:07 -0,5 C 0,7 C -0,3 C 83 % 1023 hPa 0,0 l/m 0,0 m/s (0 Bft) O-SO 115 0 min 0 lux -3,0 C -0,5 C
05.05.2011 04:12 -0,4 C 0,7 C 0,2 C 83 % 1023 hPa 0,0 l/m 0,0 m/s (0 Bft) O-SO 115 0 min 0 lux -2,9 C -0,4 C
05.05.2011 04:17 -0,4 C 0,6 C -0,3 C 83 % 1023 hPa 0,0 l/m 0,0 m/s (0 Bft) O-SO 115 0 min 0 lux -2,9 C -0,4 C
05.05.2011 04:22 -0,4 C 0,6 C -0,7 C 83 % 1023 hPa 0,0 l/m 0,0 m/s (0 Bft) O-SO 115 0 min 0 lux -2,9 C -0,4 C
05.05.2011 04:28 -0,5 C 0,5 C -0,8 C 83 % 1023 hPa 0,0 l/m 0,0 m/s (0 Bft) O-SO 115 0 min 0 lux -3,0 C -0,5 C
05.05.2011 04:33 -0,6 C 0,5 C -0,8 C 83 % 1023 hPa 0,0 l/m 0,0 m/s (0 Bft) O-SO22.5 120 0 min 0 lux -3,1 C -0,6 C
05.05.2011 04:38 -0,6 C 0,4 C -0,4 C 83 % 1023 hPa 0,0 l/m 0,0 m/s (0 Bft) SO22.5 125 0 min 0 lux -3,1 C -0,6 C
05.05.2011 04:43 -0,6 C 0,3 C 0,1 C 84 % 1023 hPa 0,0 l/m 0,0 m/s (0 Bft) O-SO 120 0 min 0 lux -3,0 C -0,6 C
05.05.2011 04:48 -0,6 C 0,3 C -0,3 C 84 % 1023 hPa 0,0 l/m 0,0 m/s (0 Bft) O-SO 120 0 min 0 lux -3,0 C -0,6 C
05.05.2011 04:53 -0,7 C 0,3 C -0,7 C 84 % 1023 hPa 0,0 l/m 0,0 m/s (0 Bft) O-SO 120 0 min 0 lux -3,1 C -0,7 C
05.05.2011 04:58 -0,8 C 0,2 C -0,4 C 84 % 1023 hPa 0,0 l/m 0,0 m/s (0 Bft) O-SO 115 0 min 0 lux -3,2 C -0,8 C
05.05.2011 05:03 -0,8 C 0,2 C -0,9 C 84 % 1023 hPa 0,0 l/m 0,0 m/s (0 Bft) O-SO 115 0 min 0 lux -3,2 C -0,8 C
05.05.2011 05:08 -1,0 C 0,1 C -1,2 C 84 % 1023 hPa 0,0 l/m 0,0 m/s (0 Bft) O-SO 115 0 min 0 lux -3,4 C -1,0 C
05.05.2011 05:13 -1,0 C 0,0 C -0,8 C 84 % 1023 hPa 0,0 l/m 0,0 m/s (0 Bft) O-SO 115 0 min 0 lux -3,4 C -1,0 C
05.05.2011 05:18 -1,1 C 0,0 C -1,1 C 84 % 1023 hPa 0,0 l/m 0,0 m/s (0 Bft) O-SO 115 0 min 0 lux -3,4 C -1,1 C
05.05.2011 05:23 -1,2 C 0,0 C -1,1 C 84 % 1023 hPa 0,0 l/m 0,0 m/s (0 Bft) O-SO 115 0 min 0 lux -3,5 C -1,2 C
05.05.2011 05:28 -1,2 C 0,0 C -1,3 C 84 % 1023 hPa 0,0 l/m 0,0 m/s (0 Bft) O-SO 115 0 min 0 lux -3,5 C -1,2 C
05.05.2011 05:33 -1,2 C -0,1 C -1,1 C 84 % 1023 hPa 0,0 l/m 0,0 m/s (0 Bft) O-SO 115 0 min 0 lux -3,5 C -1,2 C
05.05.2011 05:38 -1,2 C -0,1 C -1,2 C 85 % 1023 hPa 0,0 l/m 0,0 m/s (0 Bft) O-SO 115 0 min 67 lux -3,4 C -1,2 C
05.05.2011 05:43 -1,1 C -0,2 C -1,2 C 85 % 1023 hPa 0,0 l/m 0,0 m/s (0 Bft) O-SO 115 0 min 123 lux -3,3 C -1,1 C
05.05.2011 05:48 -1,2 C -0,2 C -0,7 C 85 % 1023 hPa 0,0 l/m 0,0 m/s (0 Bft) O-SO 115 0 min 224 lux -3,4 C -1,2 C
05.05.2011 05:53 -1,2 C -0,3 C -1,4 C 85 % 1023 hPa 0,0 l/m 0,0 m/s (0 Bft) O-SO 115 0 min 385 lux -3,4 C -1,2 C
05.05.2011 05:57 -1,2 C -0,3 C -1,4 C 85 % 1023 hPa 0,0 l/m 0,0 m/s (0 Bft) O-SO 115 0 min 603 lux -3,4 C -1,2 C
05.05.2011 06:02 -1,2 C -0,3 C -1,2 C 85 % 1023 hPa 0,0 l/m 0,0 m/s (0 Bft) O-SO 115 0 min 733 lux -3,4 C -1,2 C
05.05.2011 06:07 -1,2 C -0,3 C -1,2 C 85 % 1023 hPa 0,0 l/m 0,0 m/s (0 Bft) O-SO 115 0 min 733 lux -3,4 C -1,2 C
05.05.2011 06:12 -1,3 C -0,3 C -1,4 C 85 % 1024 hPa 0,0 l/m 0,0 m/s (0 Bft) O-SO 115 0 min 1,40 klux -3,5 C -1,3 C
05.05.2011 06:17 -1,3 C -0,3 C -1,3 C 85 % 1024 hPa 0,0 l/m 0,0 m/s (0 Bft) O-SO 115 0 min 1,87 klux -3,5 C -1,3 C
05.05.2011 06:22 -1,2 C -0,3 C -1,3 C 85 % 1024 hPa 0,0 l/m 0,0 m/s (0 Bft) O-SO 115 0 min 2,38 klux -3,4 C -1,2 C
05.05.2011 06:27 -1,2 C -0,3 C -1,3 C 85 % 1024 hPa 0,0 l/m 0,0 m/s (0 Bft) SO 125 0 min 3,00 klux -3,4 C -1,2 C
05.05.2011 06:32 -1,1 C -0,3 C -0,9 C 85 % 1024 hPa 0,0 l/m 0,0 m/s (0 Bft) SO 130 0 min 3,79 klux -3,3 C -1,1 C
05.05.2011 06:37 -1,1 C -0,3 C -0,9 C 85 % 1024 hPa 0,0 l/m 0,0 m/s (0 Bft) SO 125 0 min 4,71 klux -3,3 C -1,1 C
05.05.2011 06:42 -1,0 C -0,2 C -0,9 C 85 % 1024 hPa 0,0 l/m 0,0 m/s (0 Bft) O-SO 120 0 min 5,20 klux -3,2 C -1,0 C
05.05.2011 06:47 -0,7 C -0,1 C -0,7 C 85 % 1024 hPa 0,0 l/m 0,0 m/s (0 Bft) O-SO 120 0 min 6,12 klux -2,9 C -0,7 C
05.05.2011 06:52 -0,6 C -0,1 C 0,1 C 85 % 1024 hPa 0,0 l/m 0,0 m/s (0 Bft) O-SO 120 0 min 6,11 klux -2,8 C -0,6 C
05.05.2011 06:57 -0,3 C 0,0 C 0,4 C 85 % 1024 hPa 0,0 l/m 0,0 m/s (0 Bft) O-SO 120 0 min 7,43 klux -2,5 C -0,3 C
05.05.2011 07:02 -0,2 C 0,1 C 0,4 C 85 % 1024 hPa 0,0 l/m 0,0 m/s (0 Bft) O-SO 120 0 min 7,40 klux -2,4 C -0,2 C
05.05.2011 07:07 -0,2 C 0,2 C 0,4 C 85 % 1024 hPa 0,0 l/m 0,0 m/s (0 Bft) O-SO 115 0 min 10,5 klux -2,4 C -0,2 C
05.05.2011 07:12 0,7 C 0,2 C 0,8 C 84 % 1024 hPa 0,0 l/m 0,0 m/s (0 Bft) O-SO 115 0 min 11,5 klux -1,7 C 0,7 C
05.05.2011 07:17 1,6 C 0,3 C 1,0 C 84 % 1024 hPa 0,0 l/m 0,0 m/s (0 Bft) O-SO 115 5 min 18,4 klux -0,8 C 1,6 C
05.05.2011 07:22 2,5 C 0,4 C 1,3 C 83 % 1024 hPa 0,0 l/m 0,0 m/s (0 Bft) O-SO 115 5 min 19,8 klux -0,1 C 2,5 C
05.05.2011 07:27 4,2 C 0,5 C 1,8 C 80 % 1024 hPa 0,0 l/m 0,0 m/s (0 Bft) O-SO 115 5 min 21,9 klux 1,1 C 4,2 C
05.05.2011 07:32 5,5 C 0,5 C 3,0 C 77 % 1024 hPa 0,0 l/m 0,0 m/s (0 Bft) O-SO 115 0 min 16,7 klux 1,8 C 5,5 C
05.05.2011 07:37 6,0 C 0,7 C 3,1 C 73 % 1024 hPa 0,0 l/m 0,0 m/s (0 Bft) O-SO 115 5 min 22,3 klux 1,5 C 6,0 C
05.05.2011 07:42 6,0 C 0,8 C 3,4 C 72 % 1024 hPa 0,0 l/m 0,0 m/s (0 Bft) O-SO 115 5 min 28,7 klux 1,3 C 6,0 C
05.05.2011 07:47 6,1 C 0,9 C 3,7 C 70 % 1024 hPa 0,0 l/m 0,0 m/s (0 Bft) O-SO 115 5 min 26,7 klux 1,0 C 6,1 C
05.05.2011 07:52 6,5 C 0,9 C 3,9 C 70 % 1024 hPa 0,0 l/m 0,0 m/s (0 Bft) SO22.5 125 5 min 28,5 klux 1,4 C 6,5 C
05.05.2011 07:57 6,8 C 1,1 C 4,7 C 69 % 1024 hPa 0,0 l/m 0,0 m/s (0 Bft) O-SO 120 5 min 30,9 klux 1,5 C 6,8 C
05.05.2011 08:02 7,3 C 1,2 C 4,9 C 68 % 1024 hPa 0,0 l/m 0,0 m/s (0 Bft) O-SO 120 5 min 33,2 klux 1,8 C 7,3 C
05.05.2011 08:07 8,2 C 1,3 C 5,6 C 65 % 1024 hPa 0,0 l/m 0,0 m/s (0 Bft) O-SO 120 5 min 34,3 klux 2,0 C 8,2 C
05.05.2011 08:12 8,3 C 1,4 C 5,2 C 65 % 1024 hPa 0,0 l/m 0,0 m/s (0 Bft) SO 125 5 min 35,7 klux 2,1 C 8,3 C
05.05.2011 08:17 8,0 C 1,7 C 6,2 C 65 % 1024 hPa 0,0 l/m 0,0 m/s (0 Bft) SO 125 5 min 37,3 klux 1,8 C 8,0 C
05.05.2011 08:22 7,0 C 1,7 C 6,4 C 66 % 1024 hPa 0,0 l/m 0,0 m/s (0 Bft) SO 125 5 min 39,1 klux 1,1 C 7,0 C
05.05.2011 08:27 6,5 C 1,9 C 7,3 C 67 % 1024 hPa 0,0 l/m 0,0 m/s (0 Bft) SO 125 5 min 40,4 klux 0,8 C 6,5 C
05.05.2011 08:32 5,7 C 2,1 C 7,7 C 69 % 1025 hPa 0,0 l/m 0,0 m/s (0 Bft) SO 125 5 min 42,2 klux 0,5 C 5,7 C
05.05.2011 08:37 5,5 C 2,3 C 8,0 C 72 % 1025 hPa 0,0 l/m 0,0 m/s (0 Bft) SO 125 5 min 42,9 klux 0,9 C 5,5 C
05.05.2011 08:42 5,6 C 2,5 C 8,5 C 72 % 1025 hPa 0,0 l/m 0,0 m/s (0 Bft) SO 125 5 min 44,7 klux 1,0 C 5,6 C
05.05.2011 08:47 5,8 C 2,8 C 8,7 C 72 % 1024 hPa 0,0 l/m 0,0 m/s (0 Bft) SO 125 5 min 45,5 klux 1,2 C 5,8 C
05.05.2011 08:52 6,1 C 3,1 C 9,0 C 72 % 1024 hPa 0,0 l/m 0,0 m/s (0 Bft) SO 125 5 min 45,2 klux 1,4 C 6,1 C
05.05.2011 08:57 6,4 C 3,3 C 9,4 C 73 % 1024 hPa 0,0 l/m 0,0 m/s (0 Bft) SO 125 5 min 47,5 klux 1,9 C 6,4 C
05.05.2011 09:02 6,6 C 3,6 C 9,9 C 73 % 1024 hPa 0,0 l/m 0,0 m/s (0 Bft) SO 130 5 min 47,9 klux 2,1 C 6,6 C
05.05.2011 09:07 7,1 C 3,9 C 10,4 C 72 % 1024 hPa 0,0 l/m 0,0 m/s (0 Bft) SO 125 5 min 50,0 klux 2,4 C 7,1 C
05.05.2011 09:12 7,5 C 4,1 C 10,8 C 73 % 1024 hPa 0,0 l/m 0,0 m/s (0 Bft) SO22.5 135 5 min 52,2 klux 3,0 C 7,5 C
05.05.2011 09:17 7,8 C 4,6 C 11,1 C 72 % 1024 hPa 0,0 l/m 2,2 m/s (2 Bft) S-SO67.5 160 5 min 53,6 klux 3,1 C 6,7 C
05.05.2011 09:22 8,5 C 5,1 C 12,1 C 71 % 1024 hPa 0,0 l/m 1,6 m/s (2 Bft) S-SO45 150 5 min 54,8 klux 3,5 C 8,5 C
05.05.2011 09:27 9,0 C 5,5 C 12,1 C 68 % 1024 hPa 0,0 l/m 0,1 m/s (0 Bft) O-SO45 115 5 min 56,3 klux 3,4 C 9,0 C
05.05.2011 09:32 9,2 C 5,8 C 11,6 C 68 % 1024 hPa 0,0 l/m 0,1 m/s (0 Bft) O-SO45 115 5 min 56,6 klux 3,6 C 9,2 C
05.05.2011 09:37 9,4 C 6,1 C 11,8 C 68 % 1024 hPa 0,0 l/m 2,9 m/s (2 Bft) SO67.5 140 5 min 57,5 klux 3,8 C 6,6 C
05.05.2011 09:42 9,8 C 6,3 C 11,9 C 66 % 1024 hPa 0,0 l/m 2,3 m/s (2 Bft) SO45 140 5 min 59,5 klux 3,8 C 8,4 C
05.05.2011 09:47 10,0 C 6,8 C 12,0 C 62 % 1024 hPa 0,0 l/m 3,2 m/s (2 Bft) SO45 130 5 min 59,9 klux 3,1 C 6,7 C
05.05.2011 09:53 9,9 C 7,1 C 12,3 C 63 % 1024 hPa 0,0 l/m 0,5 m/s (1 Bft) O-SO22.5 110 6 min 60,2 klux 3,2 C 9,9 C
05.05.2011 09:58 9,9 C 7,3 C 12,1 C 64 % 1024 hPa 0,0 l/m 0,4 m/s (1 Bft) SO67.5 135 5 min 61,9 klux 3,4 C 9,9 C
05.05.2011 10:02 10,5 C 7,6 C 12,5 C 62 % 1024 hPa 0,0 l/m 2,3 m/s (2 Bft) S-SO45 160 4 min 63,3 klux 3,5 C 9,3 C
05.05.2011 10:07 10,7 C 7,9 C 12,7 C 62 % 1024 hPa 0,0 l/m 2,6 m/s (2 Bft) S45 170 5 min 65,4 klux 3,7 C 8,7 C
05.05.2011 10:12 10,8 C 8,9 C 13,2 C 60 % 1025 hPa 0,0 l/m 0,2 m/s (0 Bft) SO 140 5 min 66,5 klux 3,4 C 10,8 C
05.05.2011 10:17 10,9 C 9,7 C 13,9 C 58 % 1025 hPa 0,0 l/m 2,6 m/s (2 Bft) SO22.5 135 5 min 67,1 klux 3,0 C 8,9 C
05.05.2011 10:22 10,8 C 11,4 C 13,9 C 56 % 1025 hPa 0,0 l/m 0,2 m/s (0 Bft) SO45 140 5 min 66,9 klux 2,4 C 10,8 C
05.05.2011 10:27 11,2 C 12,9 C 14,9 C 59 % 1024 hPa 0,0 l/m 0,1 m/s (0 Bft) SO22.5 140 5 min 67,9 klux 3,5 C 11,2 C
05.05.2011 10:33 11,6 C 13,5 C 15,3 C 56 % 1024 hPa 0,0 l/m 0,0 m/s (0 Bft) SO 145 6 min 69,9 klux 3,1 C 11,6 C
05.05.2011 10:38 11,9 C 14,4 C 15,2 C 57 % 1025 hPa 0,0 l/m 2,9 m/s (2 Bft) S-SO67.5 150 5 min 70,8 klux 3,7 C 9,4 C
05.05.2011 10:42 12,0 C 15,3 C 16,0 C 56 % 1025 hPa 0,0 l/m 0,9 m/s (1 Bft) O-SO67.5 115 4 min 72,6 klux 3,5 C 12,0 C
05.05.2011 10:47 12,1 C 16,3 C 15,9 C 55 % 1024 hPa 0,0 l/m 0,1 m/s (0 Bft) O-SO22.5 110 5 min 71,7 klux 3,3 C 12,1 C
05.05.2011 10:52 12,2 C 16,5 C 15,5 C 54 % 1024 hPa 0,0 l/m 0,1 m/s (0 Bft) O-SO22.5 110 5 min 74,0 klux 3,2 C 12,2 C
05.05.2011 10:57 12,4 C 17,6 C 17,0 C 53 % 1024 hPa 0,0 l/m 2,5 m/s (2 Bft) O-SO45 110 5 min 75,1 klux 3,1 C 10,8 C
05.05.2011 11:02 12,7 C 18,2 C 16,8 C 51 % 1024 hPa 0,0 l/m 2,2 m/s (2 Bft) SO67.5 135 5 min 75,5 klux 2,8 C 11,7 C
05.05.2011 11:07 12,4 C 18,8 C 17,3 C 52 % 1024 hPa 0,0 l/m 0,1 m/s (0 Bft) O45 100 5 min 76,7 klux 2,8 C 12,4 C
05.05.2011 11:12 12,4 C 19,2 C 17,3 C 52 % 1024 hPa 0,0 l/m 0,1 m/s (0 Bft) O-SO45 120 5 min 76,6 klux 2,8 C 12,4 C
05.05.2011 11:17 12,7 C 19,6 C 17,3 C 50 % 1024 hPa 0,0 l/m 0,1 m/s (0 Bft) O-SO45 120 5 min 78,3 klux 2,6 C 12,7 C
05.05.2011 11:23 12,8 C 20,3 C 18,0 C 49 % 1024 hPa 0,0 l/m 0,0 m/s (0 Bft) O-SO22.5 120 6 min 78,5 klux 2,4 C 12,8 C
05.05.2011 11:28 12,9 C 20,4 C 17,3 C 51 % 1024 hPa 0,0 l/m 4,2 m/s (3 Bft) O 100 5 min 79,5 klux 3,0 C 8,6 C
05.05.2011 11:32 13,0 C 20,7 C 17,0 C 50 % 1024 hPa 0,0 l/m 0,7 m/s (1 Bft) O-NO45 70 4 min 81,4 klux 2,8 C 13,0 C
05.05.2011 11:37 13,2 C 21,0 C 18,7 C 47 % 1024 hPa 0,0 l/m 2,5 m/s (2 Bft) SO22.5 145 5 min 82,3 klux 2,1 C 11,6 C
05.05.2011 11:42 13,4 C 21,4 C 17,7 C 45 % 1024 hPa 0,0 l/m 2,9 m/s (2 Bft) S-SW67.5 195 5 min 80,9 klux 1,7 C 11,2 C
05.05.2011 11:47 13,4 C 21,4 C 18,7 C 45 % 1024 hPa 0,0 l/m 0,0 m/s (0 Bft) O-SO45 115 5 min 82,9 klux 1,7 C 13,4 C
05.05.2011 11:52 13,5 C 21,7 C 18,5 C 47 % 1024 hPa 0,0 l/m 0,1 m/s (0 Bft) SO67.5 140 5 min 82,2 klux 2,4 C 13,5 C
05.05.2011 11:57 13,8 C 21,9 C 18,7 C 45 % 1024 hPa 0,0 l/m 3,9 m/s (3 Bft) S-SO67.5 160 5 min 81,4 klux 2,1 C 10,1 C
05.05.2011 12:02 13,8 C 22,1 C 19,5 C 43 % 1024 hPa 0,0 l/m 2,3 m/s (2 Bft) O-SO22.5 115 5 min 84,6 klux 1,4 C 12,8 C
05.05.2011 12:07 13,7 C 22,2 C 19,7 C 45 % 1024 hPa 0,0 l/m 0,1 m/s (0 Bft) SO67.5 125 5 min 83,5 klux 2,0 C 13,7 C
05.05.2011 12:13 13,7 C 22,8 C 19,3 C 45 % 1024 hPa 0,0 l/m 0,0 m/s (0 Bft) SO45 125 6 min 84,8 klux 2,0 C 13,7 C
05.05.2011 12:18 14,0 C 23,2 C 18,3 C 44 % 1024 hPa 0,0 l/m 0,1 m/s (0 Bft) O-SO22.5 110 5 min 85,5 klux 1,9 C 14,0 C
05.05.2011 12:22 14,4 C 23,6 C 20,9 C 45 % 1024 hPa 0,0 l/m 0,5 m/s (1 Bft) SO67.5 130 4 min 85,2 klux 2,6 C 14,4 C
05.05.2011 12:27 14,2 C 23,1 C 20,0 C 40 % 1024 hPa 0,0 l/m 0,1 m/s (0 Bft) O-SO45 110 5 min 85,2 klux 0,8 C 14,2 C
05.05.2011 12:32 14,1 C 23,4 C 20,1 C 42 % 1024 hPa 0,0 l/m 0,1 m/s (0 Bft) SO45 125 5 min 85,7 klux 1,4 C 14,1 C
05.05.2011 12:37 14,2 C 23,5 C 21,7 C 43 % 1024 hPa 0,0 l/m 3,5 m/s (3 Bft) S-SO67.5 160 5 min 86,1 klux 1,8 C 11,1 C
05.05.2011 12:42 14,6 C 23,5 C 22,9 C 43 % 1024 hPa 0,0 l/m 1,9 m/s (2 Bft) W-SW67.5 240 5 min 86,6 klux 2,2 C 14,3 C
05.05.2011 12:47 14,9 C 23,7 C 22,5 C 41 % 1024 hPa 0,0 l/m 0,6 m/s (1 Bft) SW67.5 225 5 min 86,8 klux 1,8 C 14,9 C
05.05.2011 12:52 14,8 C 23,7 C 23,1 C 41 % 1024 hPa 0,0 l/m 1,5 m/s (1 Bft) W67.5 265 5 min 87,6 klux 1,7 C 14,8 C
05.05.2011 12:58 14,6 C 24,0 C 22,6 C 42 % 1024 hPa 0,0 l/m 2,3 m/s (2 Bft) SO67.5 145 6 min 87,9 klux 1,8 C 13,6 C
05.05.2011 13:03 14,7 C 23,8 C 22,4 C 40 % 1024 hPa 0,0 l/m 5,3 m/s (3 Bft) SO45 125 5 min 87,9 klux 1,2 C 9,6 C
05.05.2011 13:08 14,8 C 24,1 C 22,5 C 39 % 1024 hPa 0,0 l/m 1,9 m/s (2 Bft) SO45 125 5 min 84,3 klux 1,0 C 14,5 C
05.05.2011 13:12 15,0 C 24,4 C 22,2 C 42 % 1024 hPa 0,0 l/m 3,6 m/s (3 Bft) SO67.5 135 4 min 86,1 klux 2,2 C 11,9 C
05.05.2011 13:17 15,2 C 24,0 C 22,2 C 39 % 1024 hPa 0,0 l/m 3,2 m/s (2 Bft) S-SO45 155 5 min 88,5 klux 1,3 C 12,7 C
05.05.2011 13:22 15,0 C 24,0 C 24,0 C 38 % 1024 hPa 0,0 l/m 1,8 m/s (2 Bft) W45 270 5 min 86,7 klux 0,8 C 15,0 C
05.05.2011 13:27 15,0 C 24,1 C 19,7 C 37 % 1024 hPa 0,0 l/m 4,3 m/s (3 Bft) SO45 125 5 min 88,5 klux 0,4 C 11,1 C
05.05.2011 13:32 15,0 C 24,2 C 19,6 C 38 % 1024 hPa 0,0 l/m 0,1 m/s (0 Bft) SO67.5 130 5 min 88,9 klux 0,8 C 15,0 C
05.05.2011 13:37 15,2 C 25,0 C 19,8 C 39 % 1024 hPa 0,0 l/m 0,1 m/s (0 Bft) SO67.5 135 5 min 87,9 klux 1,3 C 15,2 C
05.05.2011 13:42 15,6 C 25,1 C 19,4 C 39 % 1024 hPa 0,0 l/m 3,5 m/s (3 Bft) S-SW45 210 5 min 87,4 klux 1,7 C 12,7 C
05.05.2011 13:48 15,8 C 25,1 C 19,7 C 37 % 1024 hPa 0,0 l/m 2,2 m/s (2 Bft) S45 175 6 min 88,2 klux 1,1 C 15,0 C
05.05.2011 13:53 15,8 C 25,3 C 19,7 C 37 % 1024 hPa 0,0 l/m 0,0 m/s (0 Bft) S22.5 185 5 min 87,2 klux 1,1 C 15,8 C
05.05.2011 13:57 16,0 C 25,1 C 17,9 C 39 % 1024 hPa 0,0 l/m 0,5 m/s (1 Bft) S-SO45 155 4 min 85,8 klux 2,1 C 16,0 C
05.05.2011 14:02 16,3 C 25,0 C 18,9 C 37 % 1024 hPa 0,0 l/m 2,6 m/s (2 Bft) SW67.5 225 5 min 86,5 klux 1,6 C 14,8 C
05.05.2011 14:07 16,6 C 24,7 C 18,3 C 38 % 1024 hPa 0,0 l/m 1,7 m/s (2 Bft) S45 185 5 min 87,0 klux 2,2 C 16,6 C
05.05.2011 14:12 16,6 C 24,8 C 18,7 C 36 % 1024 hPa 0,0 l/m 0,0 m/s (0 Bft) S67.5 175 5 min 87,9 klux 1,5 C 16,6 C
05.05.2011 14:17 16,3 C 25,2 C 18,0 C 35 % 1023 hPa 0,0 l/m 0,3 m/s (0 Bft) O-SO45 105 5 min 88,0 klux 0,8 C 16,3 C
05.05.2011 14:22 16,3 C 25,5 C 17,5 C 36 % 1023 hPa 0,0 l/m 0,3 m/s (1 Bft) O-SO67.5 120 5 min 85,0 klux 1,2 C 16,3 C
05.05.2011 14:27 16,1 C 26,1 C 17,1 C 35 % 1023 hPa 0,0 l/m 0,4 m/s (1 Bft) SO22.5 135 5 min 83,3 klux 0,6 C 16,1 C
05.05.2011 14:32 16,0 C 26,2 C 17,1 C 35 % 1023 hPa 0,0 l/m 0,3 m/s (0 Bft) O-SO45 120 5 min 83,7 klux 0,6 C 16,0 C
05.05.2011 14:38 16,1 C 26,5 C 17,4 C 36 % 1023 hPa 0,0 l/m 0,0 m/s (0 Bft) O-SO45 115 6 min 81,4 klux 1,0 C 16,1 C
05.05.2011 14:43 16,1 C 26,4 C 17,0 C 36 % 1023 hPa 0,0 l/m 7,5 m/s (4 Bft) O45 80 5 min 82,2 klux 1,0 C 9,7 C
05.05.2011 14:47 16,3 C 26,3 C 17,3 C 36 % 1023 hPa 0,0 l/m 3,5 m/s (3 Bft) S-SO45 165 4 min 83,1 klux 1,2 C 13,6 C
05.05.2011 14:52 16,9 C 26,1 C 17,3 C 34 % 1023 hPa 0,0 l/m 0,2 m/s (0 Bft) S45 180 5 min 84,7 klux 0,9 C 16,9 C
05.05.2011 14:57 16,9 C 26,1 C 16,9 C 34 % 1023 hPa 0,0 l/m 3,3 m/s (2 Bft) SO67.5 140 5 min 82,5 klux 0,9 C 14,5 C
05.05.2011 15:02 17,0 C 26,2 C 17,1 C 34 % 1023 hPa 0,0 l/m 3,1 m/s (2 Bft) SO45 145 5 min 81,2 klux 1,0 C 14,9 C
05.05.2011 15:07 16,8 C 26,2 C 17,3 C 33 % 1023 hPa 0,0 l/m 0,2 m/s (0 Bft) O-NO45 75 5 min 85,4 klux 0,4 C 16,8 C
05.05.2011 15:12 16,6 C 26,8 C 16,9 C 34 % 1023 hPa 0,0 l/m 4,4 m/s (3 Bft) S-SO45 150 5 min 77,1 klux 0,7 C 12,9 C
05.05.2011 15:17 16,8 C 26,9 C 16,3 C 33 % 1023 hPa 0,0 l/m 0,0 m/s (0 Bft) SO 135 5 min 82,0 klux 0,4 C 16,8 C
05.05.2011 15:22 16,7 C 27,8 C 17,1 C 35 % 1023 hPa 0,0 l/m 1,5 m/s (1 Bft) S-SO45 160 5 min 83,1 klux 1,2 C 16,7 C
05.05.2011 15:27 16,9 C 28,1 C 17,1 C 35 % 1023 hPa 0,0 l/m 0,3 m/s (1 Bft) SO67.5 130 5 min 77,9 klux 1,3 C 16,9 C
05.05.2011 15:32 16,8 C 28,1 C 16,9 C 34 % 1023 hPa 0,0 l/m 4,6 m/s (3 Bft) S-SO67.5 150 5 min 77,4 klux 0,9 C 13,0 C
05.05.2011 15:37 16,7 C 27,8 C 16,9 C 33 % 1023 hPa 0,0 l/m 3,7 m/s (3 Bft) SO22.5 125 5 min 74,3 klux 0,4 C 13,8 C
05.05.2011 15:42 17,1 C 27,7 C 16,3 C 33 % 1023 hPa 0,0 l/m 4,8 m/s (3 Bft) S-SO67.5 165 5 min 75,6 klux 0,7 C 13,1 C
05.05.2011 15:47 17,0 C 27,7 C 16,7 C 31 % 1023 hPa 0,0 l/m 3,7 m/s (3 Bft) SO67.5 145 5 min 76,1 klux -0,2 C 14,2 C
05.05.2011 15:52 17,0 C 27,9 C 16,5 C 31 % 1023 hPa 0,0 l/m 4,3 m/s (3 Bft) S-SO45 150 5 min 75,4 klux -0,2 C 13,5 C
05.05.2011 15:57 17,6 C 27,8 C 16,7 C 32 % 1023 hPa 0,0 l/m 1,8 m/s (2 Bft) S-SW45 195 5 min 74,3 klux 0,7 C 17,6 C
05.05.2011 16:02 18,0 C 27,3 C 16,9 C 32 % 1023 hPa 0,0 l/m 2,7 m/s (2 Bft) S45 180 5 min 73,3 klux 1,1 C 16,6 C
05.05.2011 16:07 18,0 C 27,2 C 17,0 C 29 % 1023 hPa 0,0 l/m 0,1 m/s (0 Bft) SW67.5 220 5 min 69,4 klux -0,3 C 18,0 C
05.05.2011 16:12 17,8 C 27,2 C 16,9 C 30 % 1023 hPa 0,0 l/m 0,1 m/s (0 Bft) S67.5 180 5 min 68,6 klux 0,0 C 17,8 C
05.05.2011 16:17 17,8 C 27,2 C 15,9 C 31 % 1023 hPa 0,0 l/m 3,9 m/s (3 Bft) S45 185 5 min 68,8 klux 0,5 C 14,8 C
05.05.2011 16:22 18,0 C 26,4 C 16,4 C 32 % 1023 hPa 0,0 l/m 3,6 m/s (3 Bft) S45 170 5 min 64,9 klux 1,1 C 15,4 C
05.05.2011 16:27 18,1 C 26,4 C 16,4 C 31 % 1023 hPa 0,0 l/m 0,8 m/s (1 Bft) O-SO45 115 5 min 60,1 klux 0,7 C 18,1 C
05.05.2011 16:32 17,2 C 26,4 C 16,8 C 32 % 1023 hPa 0,0 l/m 0,3 m/s (0 Bft) O45 100 5 min 57,0 klux 0,4 C 17,2 C
05.05.2011 16:37 16,9 C 26,1 C 16,6 C 30 % 1023 hPa 0,0 l/m 3,7 m/s (3 Bft) O-SO67.5 115 5 min 56,1 klux -0,8 C 14,1 C
05.05.2011 16:42 16,9 C 26,2 C 16,8 C 31 % 1022 hPa 0,0 l/m 0,2 m/s (0 Bft) O-SO45 115 5 min 63,1 klux -0,3 C 16,9 C
05.05.2011 16:47 17,5 C 26,8 C 16,8 C 31 % 1022 hPa 0,0 l/m 3,9 m/s (3 Bft) S45 170 5 min 64,5 klux 0,2 C 14,5 C
05.05.2011 16:52 17,6 C 26,8 C 16,9 C 29 % 1022 hPa 0,0 l/m 3,7 m/s (3 Bft) SO45 140 5 min 60,1 klux -0,6 C 14,8 C
05.05.2011 16:57 17,3 C 26,8 C 16,7 C 29 % 1022 hPa 0,0 l/m 3,8 m/s (3 Bft) SO45 135 5 min 49,7 klux -0,9 C 14,4 C
05.05.2011 17:02 17,1 C 26,7 C 17,2 C 31 % 1023 hPa 0,0 l/m 0,3 m/s (1 Bft) S-SO67.5 165 5 min 52,0 klux -0,2 C 17,1 C
05.05.2011 17:07 17,5 C 26,7 C 17,0 C 30 % 1023 hPa 0,0 l/m 3,7 m/s (3 Bft) S45 185 5 min 47,1 klux -0,3 C 14,7 C
05.05.2011 17:12 17,4 C 24,3 C 16,9 C 30 % 1023 hPa 0,0 l/m 5,4 m/s (3 Bft) S45 185 0 min 41,9 klux -0,3 C 13,0 C
05.05.2011 17:17 16,8 C 24,1 C 17,7 C 29 % 1023 hPa 0,0 l/m 0,1 m/s (0 Bft) SO22.5 130 5 min 42,0 klux -1,3 C 16,8 C
05.05.2011 17:22 16,8 C 23,9 C 17,7 C 30 % 1023 hPa 0,0 l/m 3,2 m/s (2 Bft) S-SO45 165 0 min 35,9 klux -0,9 C 14,5 C
05.05.2011 17:28 16,7 C 23,4 C 18,3 C 29 % 1023 hPa 0,0 l/m 0,2 m/s (0 Bft) O-SO22.5 120 0 min 34,3 klux -1,4 C 16,7 C
05.05.2011 17:33 16,7 C 23,1 C 18,1 C 30 % 1023 hPa 0,0 l/m 1,7 m/s (2 Bft) S-SO45 150 0 min 34,3 klux -0,9 C 16,7 C
05.05.2011 17:37 16,9 C 22,9 C 18,7 C 29 % 1023 hPa 0,0 l/m 0,3 m/s (0 Bft) S-SW45 200 0 min 36,5 klux -1,2 C 16,9 C
05.05.2011 17:42 16,7 C 22,8 C 17,5 C 30 % 1023 hPa 0,0 l/m 0,1 m/s (0 Bft) SO45 130 0 min 33,5 klux -0,9 C 16,7 C
05.05.2011 17:47 16,6 C 22,7 C 17,9 C 31 % 1023 hPa 0,0 l/m 0,1 m/s (0 Bft) O-SO22.5 120 0 min 34,3 klux -0,6 C 16,6 C
05.05.2011 17:52 16,8 C 22,6 C 18,3 C 30 % 1023 hPa 0,0 l/m 2,8 m/s (2 Bft) SO45 145 5 min 37,2 klux -0,9 C 15,1 C
05.05.2011 17:57 16,9 C 22,4 C 18,0 C 30 % 1023 hPa 0,0 l/m 2,0 m/s (2 Bft) S45 180 0 min 34,1 klux -0,8 C 16,5 C
05.05.2011 18:02 17,0 C 21,7 C 17,9 C 30 % 1023 hPa 0,0 l/m 1,4 m/s (1 Bft) S45 190 0 min 32,5 klux -0,7 C 17,0 C
05.05.2011 18:07 17,0 C 21,5 C 17,2 C 31 % 1022 hPa 0,0 l/m 1,8 m/s (2 Bft) S45 185 0 min 31,1 klux -0,2 C 17,0 C
05.05.2011 18:12 17,0 C 21,0 C 17,4 C 30 % 1022 hPa 0,0 l/m 0,3 m/s (0 Bft) S-SO67.5 160 5 min 32,5 klux -0,7 C 17,0 C
05.05.2011 18:18 17,1 C 21,0 C 17,9 C 30 % 1022 hPa 0,0 l/m 0,0 m/s (0 Bft) S-SO22.5 160 0 min 29,5 klux -0,6 C 17,1 C
05.05.2011 18:23 17,0 C 21,0 C 17,6 C 30 % 1023 hPa 0,0 l/m 0,1 m/s (0 Bft) SO45 135 5 min 30,1 klux -0,7 C 17,0 C
05.05.2011 18:27 16,8 C 21,1 C 16,8 C 30 % 1022 hPa 0,0 l/m 0,0 m/s (0 Bft) O-SO45 115 4 min 30,6 klux -0,9 C 16,8 C
05.05.2011 18:32 16,3 C 21,1 C 16,4 C 30 % 1022 hPa 0,0 l/m 0,1 m/s (0 Bft) SO45 135 0 min 21,4 klux -1,3 C 16,3 C
05.05.2011 18:37 16,1 C 20,6 C 16,0 C 31 % 1022 hPa 0,0 l/m 2,8 m/s (2 Bft) SO45 145 0 min 20,5 klux -1,0 C 14,3 C
05.05.2011 18:42 16,0 C 20,3 C 16,2 C 31 % 1022 hPa 0,0 l/m 1,5 m/s (1 Bft) S-SO22.5 165 0 min 20,9 klux -1,1 C 16,0 C
05.05.2011 18:47 16,3 C 20,3 C 16,2 C 31 % 1022 hPa 0,0 l/m 0,1 m/s (0 Bft) SO67.5 140 0 min 20,8 klux -0,8 C 16,3 C
05.05.2011 18:52 16,4 C 20,1 C 15,8 C 33 % 1022 hPa 0,0 l/m 0,6 m/s (1 Bft) S-SO67.5 160 0 min 21,8 klux 0,1 C 16,4 C
05.05.2011 18:57 16,9 C 19,9 C 15,4 C 30 % 1022 hPa 0,0 l/m 2,0 m/s (2 Bft) S-SO45 155 0 min 22,2 klux -0,8 C 16,4 C
05.05.2011 19:02 17,0 C 19,8 C 15,6 C 30 % 1022 hPa 0,0 l/m 0,1 m/s (0 Bft) O-SO45 120 5 min 21,4 klux -0,7 C 17,0 C
05.05.2011 19:08 16,8 C 19,7 C 15,5 C 30 % 1022 hPa 0,0 l/m 0,2 m/s (0 Bft) SO45 135 0 min 19,4 klux -0,9 C 16,8 C
05.05.2011 19:13 16,4 C 19,4 C 15,2 C 31 % 1022 hPa 0,0 l/m 0,3 m/s (0 Bft) S45 180 0 min 16,4 klux -0,8 C 16,4 C
05.05.2011 19:17 16,4 C 19,1 C 15,1 C 31 % 1022 hPa 0,0 l/m 0,3 m/s (1 Bft) S-SO67.5 165 4 min 18,7 klux -0,8 C 16,4 C
05.05.2011 19:22 16,5 C 19,0 C 15,1 C 31 % 1022 hPa 0,0 l/m 0,0 m/s (0 Bft) SO45 140 5 min 17,6 klux -0,7 C 16,5 C
05.05.2011 19:27 16,5 C 18,9 C 15,0 C 31 % 1022 hPa 0,0 l/m 0,1 m/s (0 Bft) SO67.5 125 5 min 17,6 klux -0,7 C 16,5 C
05.05.2011 19:32 16,4 C 18,7 C 14,7 C 31 % 1022 hPa 0,0 l/m 0,0 m/s (0 Bft) S-SO45 150 0 min 14,1 klux -0,8 C 16,4 C
05.05.2011 19:37 16,2 C 18,6 C 14,6 C 33 % 1022 hPa 0,0 l/m 0,0 m/s (0 Bft) O-SO22.5 105 5 min 14,7 klux -0,1 C 16,2 C
05.05.2011 19:42 16,0 C 18,4 C 14,2 C 34 % 1022 hPa 0,0 l/m 0,0 m/s (0 Bft) O22.5 90 0 min 11,1 klux 0,2 C 16,0 C
05.05.2011 19:47 15,7 C 17,9 C 14,0 C 35 % 1022 hPa 0,0 l/m 0,0 m/s (0 Bft) O 90 5 min 12,2 klux 0,3 C 15,7 C
05.05.2011 19:52 15,5 C 17,5 C 13,9 C 36 % 1022 hPa 0,0 l/m 0,0 m/s (0 Bft) O 90 0 min 11,0 klux 0,5 C 15,5 C
05.05.2011 19:58 15,4 C 17,3 C 13,6 C 36 % 1022 hPa 0,0 l/m 0,0 m/s (0 Bft) O 90 0 min 9,7 klux 0,4 C 15,4 C
05.05.2011 20:03 15,1 C 16,8 C 12,9 C 37 % 1022 hPa 0,0 l/m 0,0 m/s (0 Bft) O 90 0 min 7,71 klux 0,5 C 15,1 C
05.05.2011 20:07 14,6 C 16,4 C 12,7 C 38 % 1022 hPa 0,0 l/m 0,0 m/s (0 Bft) O 90 0 min 6,71 klux 0,4 C 14,6 C
05.05.2011 20:12 14,3 C 16,1 C 12,7 C 39 % 1022 hPa 0,0 l/m 0,0 m/s (0 Bft) O 90 0 min 5,49 klux 0,5 C 14,3 C
05.05.2011 20:17 13,6 C 15,7 C 12,5 C 41 % 1022 hPa 0,0 l/m 0,0 m/s (0 Bft) O 90 0 min 4,59 klux 0,6 C 13,6 C
05.05.2011 20:22 13,0 C 15,5 C 11,7 C 42 % 1022 hPa 0,0 l/m 0,0 m/s (0 Bft) O 90 0 min 3,76 klux 0,4 C 13,0 C
05.05.2011 20:27 12,5 C 14,9 C 11,1 C 42 % 1022 hPa 0,0 l/m 0,0 m/s (0 Bft) O 90 0 min 2,93 klux -0,1 C 12,5 C
05.05.2011 20:32 12,3 C 14,7 C 10,6 C 43 % 1022 hPa 0,0 l/m 0,0 m/s (0 Bft) O 85 0 min 2,26 klux 0,1 C 12,3 C
05.05.2011 20:37 11,7 C 14,2 C 11,1 C 46 % 1022 hPa 0,0 l/m 0,0 m/s (0 Bft) O 90 0 min 1,66 klux 0,5 C 11,7 C
05.05.2011 20:43 11,3 C 14,0 C 10,5 C 46 % 1022 hPa 0,0 l/m 0,0 m/s (0 Bft) O 85 0 min 1,11 klux 0,1 C 11,3 C
05.05.2011 20:48 11,1 C 13,5 C 10,2 C 46 % 1022 hPa 0,0 l/m 0,0 m/s (0 Bft) O 85 0 min 690 lux -0,1 C 11,1 C
05.05.2011 20:52 10,6 C 13,1 C 9,8 C 47 % 1022 hPa 0,0 l/m 0,0 m/s (0 Bft) O 90 0 min 418 lux -0,2 C 10,6 C
05.05.2011 20:57 10,4 C 12,7 C 9,6 C 47 % 1022 hPa 0,0 l/m 0,0 m/s (0 Bft) O 90 0 min 334 lux -0,4 C 10,4 C
05.05.2011 21:02 10,2 C 12,5 C 9,6 C 49 % 1022 hPa 0,0 l/m 0,0 m/s (0 Bft) O 85 0 min 222 lux -0,0 C 10,2 C
05.05.2011 21:07 9,7 C 12,1 C 9,4 C 52 % 1022 hPa 0,0 l/m 0,0 m/s (0 Bft) O 85 0 min 140 lux 0,3 C 9,7 C
05.05.2011 21:12 9,6 C 11,7 C 9,7 C 53 % 1022 hPa 0,0 l/m 0,0 m/s (0 Bft) O 85 0 min 83 lux 0,5 C 9,6 C
05.05.2011 21:17 9,5 C 11,4 C 9,3 C 54 % 1022 hPa 0,0 l/m 0,0 m/s (0 Bft) O 90 0 min 48 lux 0,7 C 9,5 C
05.05.2011 21:22 9,5 C 11,3 C 9,0 C 53 % 1022 hPa 0,0 l/m 0,0 m/s (0 Bft) O 90 0 min 30 lux 0,4 C 9,5 C
05.05.2011 21:28 9,2 C 11,0 C 9,0 C 55 % 1022 hPa 0,0 l/m 0,0 m/s (0 Bft) O 85 0 min 22 lux 0,6 C 9,2 C
05.05.2011 21:33 9,0 C 10,7 C 8,2 C 54 % 1023 hPa 0,0 l/m 0,0 m/s (0 Bft) O 85 0 min 17 lux 0,2 C 9,0 C
05.05.2011 21:38 8,8 C 10,6 C 8,2 C 54 % 1023 hPa 0,0 l/m 0,0 m/s (0 Bft) O 90 0 min 11 lux 0,0 C 8,8 C
05.05.2011 21:42 8,5 C 10,4 C 8,1 C 56 % 1022 hPa 0,0 l/m 0,0 m/s (0 Bft) O 90 0 min 8 lux 0,2 C 8,5 C
05.05.2011 21:47 8,3 C 10,3 C 8,3 C 56 % 1023 hPa 0,0 l/m 0,0 m/s (0 Bft) O 90 0 min 8 lux 0,0 C 8,3 C
05.05.2011 21:52 8,2 C 10,1 C 8,0 C 57 % 1023 hPa 0,0 l/m 0,0 m/s (0 Bft) O 90 0 min 6 lux 0,2 C 8,2 C
05.05.2011 21:57 8,0 C 10,0 C 7,2 C 57 % 1023 hPa 0,0 l/m 0,0 m/s (0 Bft) O 90 0 min 4 lux 0,0 C 8,0 C
05.05.2011 22:02 7,7 C 9,7 C 7,6 C 59 % 1023 hPa 0,0 l/m 0,0 m/s (0 Bft) O 90 0 min 4 lux 0,2 C 7,7 C
05.05.2011 22:07 7,6 C 9,5 C 7,5 C 59 % 1023 hPa 0,0 l/m 0,0 m/s (0 Bft) O 90 0 min 4 lux 0,1 C 7,6 C
05.05.2011 22:12 7,4 C 9,4 C 7,1 C 59 % 1023 hPa 0,0 l/m 0,0 m/s (0 Bft) O 90 0 min 3 lux -0,1 C 7,4 C
05.05.2011 22:17 7,4 C 9,2 C 6,9 C 59 % 1023 hPa 0,0 l/m 0,0 m/s (0 Bft) O 90 0 min 1 lux -0,1 C 7,4 C
05.05.2011 22:22 7,2 C 9,1 C 6,6 C 60 % 1023 hPa 0,0 l/m 0,0 m/s (0 Bft) O 90 0 min 1 lux -0,0 C 7,2 C
05.05.2011 22:27 7,0 C 9,0 C 6,7 C 60 % 1023 hPa 0,0 l/m 0,0 m/s (0 Bft) O 90 0 min 1 lux -0,2 C 7,0 C
05.05.2011 22:33 6,9 C 8,8 C 6,5 C 60 % 1023 hPa 0,0 l/m 0,0 m/s (0 Bft) O 90 0 min 1 lux -0,3 C 6,9 C
05.05.2011 22:38 6,8 C 8,6 C 6,5 C 61 % 1023 hPa 0,0 l/m 0,0 m/s (0 Bft) O 90 0 min 0 lux -0,2 C 6,8 C
05.05.2011 22:42 6,7 C 8,5 C 6,3 C 62 % 1023 hPa 0,0 l/m 0,0 m/s (0 Bft) O 90 0 min 0 lux -0,1 C 6,7 C
05.05.2011 22:47 6,6 C 8,4 C 6,4 C 61 % 1023 hPa 0,0 l/m 0,0 m/s (0 Bft) O 90 0 min 0 lux -0,4 C 6,6 C
05.05.2011 22:52 6,4 C 8,2 C 6,4 C 62 % 1023 hPa 0,0 l/m 0,0 m/s (0 Bft) O 90 0 min 0 lux -0,3 C 6,4 C
05.05.2011 22:57 6,4 C 8,1 C 6,1 C 63 % 1023 hPa 0,0 l/m 0,0 m/s (0 Bft) O 90 0 min 0 lux -0,1 C 6,4 C
05.05.2011 23:02 6,3 C 8,0 C 6,1 C 63 % 1023 hPa 0,0 l/m 0,0 m/s (0 Bft) O 90 0 min 0 lux -0,2 C 6,3 C
05.05.2011 23:07 6,1 C 7,8 C 5,8 C 65 % 1023 hPa 0,0 l/m 0,0 m/s (0 Bft) O 90 0 min 0 lux 0,0 C 6,1 C
05.05.2011 23:12 6,0 C 7,6 C 5,7 C 65 % 1023 hPa 0,0 l/m 0,0 m/s (0 Bft) O 90 0 min 0 lux -0,1 C 6,0 C
05.05.2011 23:18 6,0 C 7,6 C 5,6 C 65 % 1023 hPa 0,0 l/m 0,0 m/s (0 Bft) O 90 0 min 0 lux -0,1 C 6,0 C
05.05.2011 23:23 5,9 C 7,4 C 5,7 C 65 % 1023 hPa 0,0 l/m 0,0 m/s (0 Bft) O 90 0 min 0 lux -0,2 C 5,9 C
05.05.2011 23:28 5,8 C 7,3 C 5,5 C 66 % 1023 hPa 0,0 l/m 0,0 m/s (0 Bft) O 90 0 min 0 lux -0,0 C 5,8 C
05.05.2011 23:32 5,8 C 7,2 C 5,4 C 66 % 1023 hPa 0,0 l/m 0,0 m/s (0 Bft) O 90 0 min 0 lux -0,0 C 5,8 C
05.05.2011 23:37 5,6 C 7,1 C 5,2 C 65 % 1023 hPa 0,0 l/m 0,0 m/s (0 Bft) O 90 0 min 0 lux -0,4 C 5,6 C
05.05.2011 23:42 5,5 C 7,0 C 5,2 C 66 % 1023 hPa 0,0 l/m 0,0 m/s (0 Bft) O 90 0 min 0 lux -0,3 C 5,5 C
05.05.2011 23:47 5,4 C 6,9 C 5,0 C 66 % 1023 hPa 0,0 l/m 0,0 m/s (0 Bft) O 90 0 min 0 lux -0,4 C 5,4 C
05.05.2011 23:52 5,3 C 6,8 C 5,1 C 67 % 1023 hPa 0,0 l/m 0,0 m/s (0 Bft) O 90 0 min 0 lux -0,3 C 5,3 C
05.05.2011 23:57 5,2 C 6,8 C 5,0 C 67 % 1023 hPa 0,0 l/m 0,0 m/s (0 Bft) O 90 0 min 0 lux -0,4 C 5,2 C
_ Min-Zeit 06:12 05:53 05:53 16:07 16:42 - 00:02 - - - - 05:23 06:12
Minimum _ -1,3 C -0,3 C -1,4 C 29 % 1022 hPa - 0,0 m/s (0 Bft) - - - - -3,5 C -1,3 C
_ Max-Zeit 16:27 15:27 13:22 05:38 08:32 00:02 14:43 - - 09:53 13:32 09:37 16:27
Maximum _ 18,1 C 28,1 C 24,0 C 85 % 1025 hPa 0,0 l/m 7,5 m/s
O (4 Bft)
- - 6 min 88,9 klux 3,8 C 18,1 C
Durchschnitt _ 8,8 C 11,8 C 9,6 C 58 % 1023 hPa #0,0 l/m 0,7 m/s (1 Bft) SO - #10:43 h 31,4 klux -0,2 C 8,4 C